Tracking 30923 objects as of 1-Jul-2025
HD Live streaming from Space Station
objects crossing your sky now

SL-12 R/B(AUX MOTOR)

Track SL-12 R/B(AUX MOTOR) now!
10-day predictions


NORAD ID: 33472
Int'l Code: 2008-067G
Perigee: 592.6 km
Apogee: 18,128.3 km
Inclination: 65.0 °
Period: 327.3 minutes
Semi major axis: 15731 km
RCS: 0.6323 m2 (medium)
Launch date: December 25, 2008
Source: Commonwealth of Independent States (former USSR) (CIS)
Launch site: TYURATAM MISSILE AND SPACE COMPLEX (TTMTR)

Note: This is a ROCKET BODY
Your satellite tracking list
METEOR 3M
Track 1 satellite(s)




NASA's NSSDC Master Catalog

Two Line Element Set (TLE):
1 33472U 08067G   25181.22547275  .00000089  00000-0  15661-3 0  9990
2 33472  64.9526 193.7696 5573470 295.7963  17.8090  4.39998850256379
Source of the keplerian elements: AFSPC